Wind_Speed
31 31 31 31 30 29 28 28 28 27 27 27 26 25 24 23 23 22 22 22 21 21 21 22 22 22 22 22 22 22 22 23 23 24 24 24 25 25 25 25 26 26 26
33 32 32 32 33 32 31 30 30 30 29 28 28 27 26 25 25 24 24 23 23 23 23 23 24 24 24 24 24 24 25 25 26 26 26 26 27 27 27 27 28 28 28
34 34 34 34 34 34 33 33 31 31 31 30 30 30 29 28 27 27 26 26 26 25 25 25 26 26 26 26 26 27 27 28 28 29 29 29 29 29 29 30 30 30 30
37 36 36 36 36 36 35 34 34 33 33 33 32 32 31 30 29 29 29 28 28 28 28 28 27 28 28 28 29 29 30 30 31 31 31 31 31 31 31 32 32 32 32
39 37 37 37 38 38 38 37 36 35 35 35 34 34 33 32 31 31 31 31 31 30 30 30 30 30 31 31 31 32 32 32 33 33 33 33 33 33 34 34 34 34 34
39 38 38 37 38 39 38 38 38 37 35 35 36 36 36 35 34 33 34 34 33 33 33 32 33 33 33 34 34 34 35 35 35 35 35 35 35 35 36 36 36 36 36
37 39 40 39 38 39 40 39 39 38 37 35 36 38 37 37 36 36 36 36 36 35 35 35 35 35 36 36 36 36 36 37 37 37 37 37 37 38 38 38 38 38 39
37 38 40 41 40 39 39 38 39 38 37 37 37 39 39 39 39 38 38 37 37 37 37 37 37 37 37 38 38 38 38 38 38 39 39 39 39 40 40 40 40 40 41
36 37 38 39 39 39 40 41 40 39 38 39 38 38 38 38 39 39 39 39 39 39 39 39 39 39 39 39 40 40 40 41 41 41 41 41 42 42 42 42 42 43 43
36 35 36 38 39 40 40 40 40 39 38 38 38 38 39 40 40 40 40 40 40 41 41 41 41 41 41 42 42 42 43 43 43 44 43 43 44 44 44 44 45 45 45
35 35 35 36 38 39 39 39 39 40 41 41 39 39 39 40 41 40 41 42 42 42 43 43 43 43 44 44 44 44 44 45 45 45 45 45 45 46 46 46 47 47 47
35 35 36 36 37 38 38 38 39 40 41 41 41 41 40 40 41 41 42 42 43 43 44 44 45 45 45 46 45 46 46 47 47 47 47 47 47 48 48 49 49 50 50
35 36 36 36 36 37 38 38 39 40 41 41 42 43 43 43 43 44 44 45 46 46 47 47 47 47 47 47 47 47 47 48 48 48 48 49 49 50 50 51 51 52 53
36 37 36 36 36 37 38 39 40 41 42 42 43 44 45 45 45 45 46 47 48 49 49 49 49 49 49 50 50 50 49 49 49 50 50 51 52 52 53 54 54 55 56
38 38 38 37 37 38 39 41 41 42 42 43 43 44 46 46 47 47 47 48 49 49 50 50 50 51 51 51 51 51 51 51 52 52 53 54 54 55 57 57 57 58 58
39 40 40 40 39 39 40 41 42 43 43 43 44 45 45 46 46 46 47 48 49 50 50 50 51 51 51 51 51 52 53 53 54 54 55 56 58 58 59 59 60 60 60
39 40 40 40 39 40 40 41 42 43 43 43 44 45 46 47 47 47 48 48 49 50 51 50 51 51 51 51 51 52 54 55 56 57 58 59 60 60 60 60 61 62 62
37 38 40 40 40 41 42 42 42 43 43 44 44 46 48 49 49 48 48 48 49 50 50 50 51 51 51 51 52 53 54 55 57 58 59 60 61 61 61 62 62 62 63
38 39 40 40 40 40 41 42 42 42 42 44 45 46 49 50 49 49 49 49 49 50 50 50 51 52 52 53 54 54 55 56 57 58 59 60 60 61 62 62 62 63 63
37 38 38 38 39 40 41 42 42 43 44 45 46 47 49 49 49 49 49 49 50 50 50 51 52 53 54 55 55 55 56 56 57 58 59 59 60 60 61 62 62 63 63
37 38 38 39 41 41 42 43 44 45 46 46 47 47 48 48 48 49 49 50 51 52 52 53 53 53 55 55 56 56 56 56 57 57 58 58 59 59 60 60 62 63 64
38 39 40 41 42 42 43 44 45 45 46 47 47 47 47 48 49 49 50 50 51 53 54 54 54 54 55 56 56 56 56 56 56 56 57 57 58 59 60 61 63 64 65
40 40 40 41 41 43 44 44 45 45 45 45 45 46 46 48 49 50 51 52 53 53 54 54 54 54 55 55 55 55 55 55 56 57 58 57 58 59 61 62 63 64 65
39 40 40 40 41 42 43 43 44 44 44 44 45 46 47 48 50 51 52 53 53 53 53 54 54 54 54 53 54 55 55 56 56 57 58 58 59 60 61 62 63 63 63
39 39 40 40 41 41 42 43 44 45 46 46 47 47 48 49 50 51 52 52 52 52 53 53 53 53 53 53 54 55 55 56 56 57 58 59 60 60 60 60 60 60 59
39 40 40 40 40 41 42 43 45 46 47 46 46 47 48 49 50 50 51 51 50 51 52 52 52 53 53 54 55 55 56 57 57 57 58 60 60 60 58 56 56 56 56
Wind_Direction
244 243 243 243 244 246 246 247 247 248 249 250 251 252 253 255 258 258 261 263 265 267 268 268 270 271 272 273 275 277 278 280 281 283 285 286 287 287 287 287 287 287 286
243 243 243 244 244 245 246 248 248 248 249 250 252 253 253 254 257 260 261 263 266 267 268 268 269 271 272 273 275 277 278 279 280 282 283 284 285 286 286 286 286 285 285
243 243 243 244 245 245 245 246 248 249 248 249 250 252 253 254 257 260 261 263 265 267 268 268 269 271 272 274 275 277 278 279 279 280 281 282 283 284 285 285 285 284 284
244 244 244 244 245 245 245 246 247 248 248 249 249 251 253 254 256 259 260 262 264 266 267 268 269 271 273 274 275 277 278 279 279 280 280 281 282 283 284 284 284 283 283
243 244 243 244 245 245 244 245 246 247 248 249 249 250 252 254 256 259 260 261 263 265 267 269 270 271 273 275 276 276 277 278 279 280 280 280 282 283 283 283 283 283 283
242 242 243 244 245 244 244 244 244 246 248 250 251 251 252 253 255 259 260 261 262 264 266 268 271 272 273 274 275 276 276 278 278 279 279 280 281 282 283 283 283 283 283
243 243 244 244 245 244 243 243 243 245 246 248 251 251 252 253 255 259 261 261 262 264 266 268 271 272 273 274 275 276 277 277 278 278 279 280 281 282 283 283 282 282 283
246 246 246 245 245 245 244 245 245 246 246 249 250 252 254 255 256 258 260 262 263 265 266 268 271 272 273 275 275 276 277 277 278 278 279 280 281 282 282 282 282 282 283
247 247 247 248 248 247 246 246 248 249 249 249 252 253 255 255 257 258 260 263 264 265 266 268 271 273 273 274 275 276 277 277 278 278 279 280 280 281 281 281 282 282 283
247 247 248 249 249 249 249 248 249 250 251 251 252 253 254 255 258 259 261 263 265 267 268 269 271 272 273 274 275 276 277 277 277 278 279 279 280 280 281 281 282 282 282
248 249 249 250 249 250 250 249 249 251 252 253 254 255 257 257 258 259 261 262 265 267 268 270 271 273 273 274 275 276 277 278 278 278 278 278 280 280 281 281 281 282 282
247 248 249 250 251 250 249 249 250 251 252 254 256 257 258 259 259 260 261 262 264 266 268 270 272 274 274 275 276 277 277 278 278 278 278 279 279 279 280 281 282 282 282
247 248 250 251 252 251 250 250 251 253 254 255 257 259 259 261 262 263 262 263 264 266 269 270 272 274 274 275 276 277 278 278 278 278 279 279 279 279 280 281 282 282 282
248 249 250 252 253 253 252 252 252 254 255 257 258 259 260 262 263 264 264 264 265 267 269 271 272 273 275 275 276 276 277 278 278 278 278 279 280 280 280 281 282 282 282
251 250 250 252 254 256 256 255 254 255 258 259 261 261 261 262 263 265 265 265 266 268 269 270 271 273 275 274 275 276 277 278 278 279 279 280 280 281 281 282 282 282 283
251 252 251 252 256 257 257 257 256 256 258 260 261 262 263 265 265 265 266 267 268 270 270 271 272 273 273 275 275 276 277 278 279 279 279 280 281 281 282 282 282 283 283
253 253 254 254 257 258 258 258 258 259 260 262 262 262 264 265 265 265 267 268 268 270 270 272 273 273 273 274 275 276 277 278 279 279 280 280 281 281 282 282 282 283 283
255 256 256 256 257 257 258 259 261 262 263 263 264 265 265 266 266 266 267 268 269 270 271 272 273 273 274 274 276 277 278 279 279 280 281 281 282 282 282 282 282 283 283
258 259 258 258 259 260 261 262 263 264 264 265 265 266 266 267 268 269 269 269 270 272 273 274 274 275 275 276 277 278 279 280 281 281 282 282 282 282 283 283 283 284 284
260 261 261 260 261 262 263 263 265 265 266 265 266 267 268 268 268 269 271 271 271 272 274 275 275 275 276 277 277 278 279 280 281 282 282 282 282 283 283 284 285 285 285
263 262 263 262 263 263 264 265 266 266 267 268 268 268 269 269 268 269 271 272 272 273 274 275 276 276 277 277 278 278 279 280 281 282 282 282 283 283 284 285 286 286 286
263 263 264 264 265 265 266 267 268 268 269 269 269 268 269 269 270 270 271 272 272 273 274 275 276 277 278 278 278 279 280 281 281 281 282 283 283 284 285 286 286 287 287
264 264 266 266 266 267 268 269 269 269 269 269 269 269 270 270 270 271 272 273 273 274 275 276 278 278 278 278 279 279 280 280 282 283 283 285 285 286 287 287 288 288 288
267 267 268 269 269 269 269 269 268 269 270 271 271 271 271 271 271 272 273 274 275 276 276 277 278 279 279 279 280 280 281 281 282 284 285 286 287 287 288 289 289 289 289
269 269 270 270 270 270 270 270 270 271 271 272 272 272 272 272 273 273 274 274 275 276 277 278 279 279 279 280 281 281 282 282 283 285 286 287 288 288 289 290 289 289 288
270 271 271 270 270 270 271 272 272 273 273 273 274 273 273 274 275 275 275 275 276 277 278 279 279 280 280 281 281 282 283 284 285 286 287 288 289 289 289 289 288 287 287
Height
5801 5803 5806 5808 5810 5811 5813 5815 5816 5818 5819 5821 5822 5824 5825 5825 5826 5827 5827 5827 5828 5827 5827 5827 5827 5827 5826 5826 5825 5824 5824 5823 5822 5821 5820 5819 5818 5817 5816 5815 5814 5812 5811
5794 5796 5798 5800 5802 5804 5806 5808 5810 5811 5813 5815 5816 5818 5819 5820 5821 5821 5822 5822 5822 5822 5822 5822 5822 5821 5821 5820 5820 5819 5818 5817 5816 5816 5814 5814 5812 5811 5810 5809 5808 5807 5806
5785 5788 5790 5792 5794 5796 5799 5801 5803 5805 5806 5808 5810 5811 5812 5814 5815 5815 5816 5816 5816 5817 5816 5816 5816 5816 5815 5815 5814 5813 5812 5811 5810 5809 5808 5807 5806 5805 5804 5803 5802 5800 5799
5777 5779 5782 5784 5786 5788 5790 5793 5795 5797 5799 5801 5802 5804 5806 5807 5808 5809 5809 5810 5810 5810 5810 5810 5810 5809 5809 5808 5808 5807 5806 5805 5804 5803 5802 5801 5799 5798 5797 5796 5795 5793 5792
5767 5770 5772 5775 5777 5779 5781 5784 5787 5789 5791 5793 5795 5797 5798 5800 5801 5801 5802 5802 5803 5803 5803 5803 5803 5803 5802 5801 5800 5800 5799 5798 5797 5795 5794 5793 5792 5791 5789 5788 5787 5786 5784
5758 5761 5763 5766 5767 5770 5772 5775 5778 5781 5783 5785 5787 5789 5790 5792 5793 5794 5794 5795 5795 5796 5796 5796 5796 5795 5794 5794 5793 5792 5791 5790 5789 5788 5787 5785 5784 5783 5781 5780 5779 5777 5776
5749 5752 5754 5756 5759 5761 5764 5767 5770 5772 5775 5777 5779 5780 5781 5783 5785 5786 5786 5787 5787 5787 5788 5788 5787 5787 5786 5786 5785 5784 5783 5782 5780 5779 5778 5777 5776 5774 5773 5771 5770 5769 5767
5741 5743 5746 5748 5750 5752 5755 5758 5761 5764 5766 5768 5770 5772 5773 5775 5776 5777 5778 5778 5779 5779 5779 5779 5779 5778 5778 5777 5776 5775 5774 5773 5772 5770 5769 5768 5767 5765 5764 5762 5761 5759 5758
5733 5735 5737 5739 5741 5744 5746 5749 5752 5755 5757 5759 5761 5763 5764 5766 5767 5768 5768 5769 5770 5770 5770 5770 5770 5769 5768 5768 5767 5766 5765 5763 5762 5761 5759 5758 5757 5755 5754 5752 5750 5749 5747
5724 5726 5728 5731 5733 5735 5738 5740 5743 5746 5748 5750 5751 5753 5755 5757 5758 5759 5760 5760 5760 5760 5761 5760 5760 5759 5759 5758 5757 5756 5755 5753 5752 5751 5749 5748 5746 5745 5743 5741 5740 5738 5736
5715 5718 5720 5722 5725 5727 5730 5732 5734 5736 5739 5741 5742 5743 5745 5746 5748 5749 5750 5750 5751 5751 5750 5750 5750 5749 5748 5747 5746 5745 5744 5743 5741 5740 5738 5737 5735 5734 5732 5730 5728 5726 5724
5708 5710 5712 5714 5716 5719 5721 5723 5725 5727 5729 5731 5733 5734 5735 5736 5737 5738 5739 5740 5740 5740 5740 5740 5739 5738 5737 5736 5735 5734 5733 5731 5730 5728 5727 5725 5723 5722 5720 5718 5716 5714 5712
5700 5702 5704 5706 5708 5710 5712 5714 5716 5718 5720 5721 5723 5724 5725 5726 5727 5728 5728 5729 5729 5729 5729 5729 5728 5727 5726 5725 5724 5722 5721 5719 5718 5716 5715 5713 5711 5709 5707 5705 5703 5701 5699
5692 5694 5695 5697 5699 5701 5702 5704 5706 5708 5710 5711 5712 5713 5715 5715 5716 5716 5717 5718 5718 5718 5717 5717 5716 5714 5713 5712 5711 5710 5708 5707 5705 5704 5702 5700 5698 5696 5694 5692 5689 5687 5685
5683 5685 5686 5688 5690 5692 5693 5695 5696 5698 5699 5701 5702 5703 5703 5704 5704 5705 5705 5705 5706 5705 5705 5704 5704 5702 5701 5699 5698 5697 5695 5694 5692 5691 5689 5687 5684 5682 5680 5677 5675 5672 5670
5673 5676 5677 5679 5681 5682 5684 5685 5686 5688 5689 5690 5691 5691 5692 5692 5692 5693 5693 5693 5693 5693 5692 5692 5691 5689 5688 5686 5685 5683 5682 5681 5679 5677 5674 5672 5670 5667 5665 5662 5659 5657 5654
5664 5666 5668 5669 5671 5672 5674 5675 5676 5677 5678 5679 5679 5680 5680 5680 5680 5680 5680 5680 5680 5680 5680 5679 5677 5676 5675 5673 5671 5670 5668 5666 5664 5662 5660 5657 5654 5652 5649 5646 5643 5640 5637
5654 5656 5658 5659 5661 5662 5663 5664 5665 5666 5667 5667 5667 5668 5668 5668 5668 5667 5667 5667 5667 5667 5666 5666 5664 5663 5661 5659 5658 5656 5654 5652 5649 5647 5644 5641 5639 5636 5632 5629 5626 5623 5619
5645 5646 5648 5649 5650 5652 5653 5653 5654 5655 5655 5655 5655 5655 5655 5655 5655 5654 5654 5654 5654 5654 5653 5652 5651 5649 5647 5645 5644 5642 5639 5637 5634 5631 5628 5625 5622 5619 5615 5612 5609 5605 5601
5636 5637 5637 5638 5639 5641 5641 5642 5642 5642 5642 5642 5642 5642 5642 5642 5642 5641 5641 5641 5640 5640 5639 5638 5637 5635 5633 5631 5629 5627 5625 5622 5619 5615 5612 5608 5605 5602 5598 5595 5591 5587 5583
5625 5626 5627 5628 5628 5629 5629 5629 5630 5630 5630 5629 5629 5629 5629 5628 5628 5628 5628 5627 5626 5625 5624 5623 5622 5620 5618 5616 5614 5611 5609 5606 5603 5599 5596 5593 5589 5585 5581 5577 5573 5569 5565
5615 5616 5616 5617 5617 5617 5617 5617 5617 5617 5617 5616 5616 5615 5615 5614 5614 5614 5613 5613 5612 5611 5610 5609 5607 5605 5603 5600 5598 5595 5593 5591 5589 5586 5581 5578 5573 5570 5565 5560 5556 5551 5546
5604 5604 5605 5605 5605 5604 5604 5604 5604 5604 5604 5603 5603 5602 5601 5601 5600 5599 5599 5598 5597 5595 5594 5594 5592 5590 5587 5585 5582 5580 5577 5575 5572 5568 5564 5562 5557 5553 5548 5543 5538 5533 5528
5592 5593 5593 5592 5592 5592 5592 5591 5591 5591 5591 5590 5590 5588 5588 5587 5586 5585 5584 5583 5582 5580 5580 5579 5577 5574 5571 5568 5566 5564 5561 5559 5557 5552 5547 5545 5541 5537 5532 5526 5519 5514 5509
5582 5581 5581 5580 5580 5580 5579 5579 5578 5578 5578 5577 5576 5575 5574 5573 5572 5571 5570 5569 5568 5566 5564 5563 5561 5558 5556 5553 5550 5548 5545 5543 5541 5538 5531 5527 5524 5520 5516 5510 5503 5497 5492
5570 5570 5569 5568 5568 5567 5567 5566 5566 5565 5565 5564 5562 5561 5560 5558 5557 5555 5555 5554 5553 5551 5549 5548 5546 5543 5541 5538 5534 5532 5529 5526 5523 5521 5516 5510 5507 5501 5499 5496 5488 5482 5476